Weather History for Florence, Italy

Change the Weather History Date:

Wednesday, July 10, 2013

  Actual Average Record
Temperature  
Mean Temperature 80 °F -  
Max Temperature 93 °F 88 °F 96 °F (2010)
Min Temperature 66 °F 63 °F 58 °F (2014)
Cooling Degree Days 14    
Growing Degree Days 30 (Base 50)    
Moisture  
Dew Point 64 °F    
Average Humidity 69    
Maximum Humidity 88    
Minimum Humidity 31    
Precipitation  
Precipitation 1.22 in 0.07 in - ()
Sea Level Pressure  
Sea Level Pressure 29.92 in    
Wind  
Wind Speed 3 mph ()    
Max Wind Speed 15 mph    
Max Gust Speed 56 mph    
Visibility 5.9 miles    
Events Rain , Hail , Thunderstorm    
Averages and records for this station are not official NWS values.
T = Trace of Precipitation, MM = Missing Value Source: Averaged Metar Reports

Daily Weather History Graph

Daily Weather History Graph

Search for Another Location

Airport:

Trip Planner

Search our weather history database for the weather conditions in past years. The results will help you decide how hot, cold, wet, or windy it might be!

Date:

Astronomy

Jul. 10, 2013 Rise Set
Actual Time 5:42 AM CEST 8:57 PM CEST
Civil Twilight 5:07 AM CEST 9:33 PM CEST
Nautical Twilight 4:21 AM CEST 10:18 PM CEST
Astronomical Twilight 3:25 AM CEST 11:14 PM CEST
Moon 7:53 AM CEST (7/10) 9:52 PM CEST (7/10)
Length of Visible Light 16h 25m
Length of Day
15h 15m
Waxing Crescent, 4% of the Moon is Illuminated
Jul 10
Waxing Crescent
Jul 16
First Quarter
Jul 22
Full
Jul 29
Last Quarter
Aug 6
New

Hourly Weather History & Observations

Time (CEST) Temp. Heat Index Dew Point Humidity Pressure Visibility Wind Dir Wind Speed Gust Speed Precip Events Conditions
12:20 AM 71.6 °F - 62.6 °F 73% 29.98 in - ENE 3.5 mph - N/A   Clear
12:50 AM 71.6 °F - 62.6 °F 73% 29.98 in - East 3.5 mph - N/A   Clear
1:20 AM 71.6 °F - 62.6 °F 73% 30.01 in - Variable 1.2 mph - N/A   Clear
1:50 AM 71.6 °F - 62.6 °F 73% 29.98 in - NE 2.3 mph - N/A   Clear
2:20 AM 69.8 °F - 62.6 °F 78% 29.98 in - ENE 2.3 mph - N/A   Clear
2:50 AM 68.0 °F - 62.6 °F 83% 29.98 in - Variable 2.3 mph - N/A   Clear
3:20 AM 68.0 °F - 62.6 °F 83% 29.98 in - Variable 2.3 mph - N/A   Clear
3:50 AM 68.0 °F - 62.6 °F 83% 29.98 in - ENE 2.3 mph - N/A   Clear
4:20 AM 68.0 °F - 62.6 °F 83% 29.98 in - Calm Calm - N/A   Clear
4:50 AM 66.2 °F - 62.6 °F 88% 29.98 in - Variable 1.2 mph - N/A   Clear
5:20 AM 68.0 °F - 62.6 °F 83% 29.95 in - SSE 2.3 mph - N/A   Clear
5:50 AM 66.2 °F - 60.8 °F 83% 29.98 in - Variable 2.3 mph - N/A   Clear
6:20 AM 66.2 °F - 62.6 °F 88% 29.98 in - Variable 2.3 mph - N/A   Clear
6:50 AM 69.8 °F - 64.4 °F 83% 29.98 in - Variable 1.2 mph - N/A   Clear
7:20 AM 71.6 °F - 64.4 °F 78% 29.98 in - Variable 1.2 mph - N/A   Clear
7:50 AM 75.2 °F - 64.4 °F 69% 29.98 in - Calm Calm - N/A   Clear
8:20 AM 75.2 °F - 62.6 °F 65% 29.98 in - Variable 1.2 mph - N/A   Clear
8:50 AM 77.0 °F - 62.6 °F 61% 29.98 in - Calm Calm - N/A   Clear
9:50 AM 78.8 °F - 64.4 °F 61% 29.95 in - Variable 2.3 mph - N/A   Clear
10:20 AM 80.6 °F 82.3 °F 64.4 °F 58% 29.95 in - Variable 2.3 mph - N/A   Clear
10:50 AM 82.4 °F 83.9 °F 64.4 °F 54% 29.95 in - Variable 3.5 mph - N/A   Clear
11:20 AM 84.2 °F 85.0 °F 62.6 °F 48% 29.95 in - Variable 3.5 mph - N/A   Clear
11:50 AM 86.0 °F 86.1 °F 60.8 °F 43% 29.92 in 6.2 mi Variable 2.3 mph - N/A   Partly Cloudy
12:20 PM 89.6 °F 89.5 °F 60.8 °F 38% 29.92 in 6.2 mi Variable 3.5 mph - N/A   Partly Cloudy
12:50 PM 87.8 °F 88.5 °F 62.6 °F 43% 29.92 in 6.2 mi NW 4.6 mph - N/A   Partly Cloudy
1:20 PM 84.2 °F 85.0 °F 62.6 °F 48% 29.92 in 6.2 mi NW 6.9 mph - N/A   Partly Cloudy
1:50 PM 86.0 °F 85.4 °F 59.0 °F 40% 29.89 in 6.2 mi WNW 6.9 mph - N/A   Partly Cloudy
2:20 PM 89.6 °F 88.9 °F 59.0 °F 36% 29.89 in 6.2 mi West 6.9 mph - N/A   Scattered Clouds
2:50 PM 91.4 °F 90.7 °F 59.0 °F 34% 29.86 in 6.2 mi Variable 4.6 mph - N/A Thunderstorm Scattered Clouds
3:20 PM 91.4 °F 89.9 °F 57.2 °F 31% 29.86 in 6.2 mi Variable 4.6 mph - N/A   Scattered Clouds
3:50 PM 91.4 °F 90.7 °F 59.0 °F 34% 29.86 in 6.2 mi NW 5.8 mph - N/A   Scattered Clouds
4:20 PM 89.6 °F 88.9 °F 59.0 °F 36% 29.86 in 6.2 mi Variable 5.8 mph - N/A   Scattered Clouds
4:50 PM 69.8 °F - 66.2 °F 88% 29.92 in 0.3 mi SSE 15.0 mph 56.4 mph N/A Rain , Hail , Thunderstorm Heavy Thunderstorms with Hail
5:20 PM 75.2 °F - 66.2 °F 73% 29.86 in 6.2 mi SSW 10.4 mph - N/A Rain Light Rain
5:50 PM 75.2 °F - 69.8 °F 83% 29.86 in 6.2 mi East 4.6 mph - N/A Thunderstorm Scattered Clouds
6:20 PM 77.0 °F - 71.6 °F 83% 29.86 in 6.2 mi Variable 2.3 mph - N/A   Scattered Clouds
6:50 PM 75.2 °F - 69.8 °F 83% 29.86 in 6.2 mi ESE 6.9 mph - N/A   Partly Cloudy
7:20 PM 75.2 °F - 68.0 °F 78% 29.86 in 6.2 mi East 10.4 mph - N/A   Partly Cloudy
8:00 PM 76 °F - 67 °F 68% 29.87 in 6 mi East 6.9 mph - -   Partly Cloudy
8:20 PM 75.2 °F - 68.0 °F 78% 29.86 in 6.2 mi East 4.6 mph - N/A   Partly Cloudy
8:50 PM 75.2 °F - 68.0 °F 78% 29.86 in 6.2 mi East 5.8 mph - N/A   Partly Cloudy
9:20 PM 75.2 °F - 68.0 °F 78% 29.86 in 6.2 mi East 4.6 mph - N/A   Partly Cloudy
9:50 PM 73.4 °F - 68.0 °F 83% 29.89 in - SE 3.5 mph - N/A   Clear
10:20 PM 71.6 °F - 68.0 °F 88% 29.89 in - East 5.8 mph - N/A   Clear
10:50 PM 73.4 °F - 66.2 °F 78% 29.89 in - East 5.8 mph - N/A   Clear
11:00 PM 72 °F - 67 °F 81% 29.90 in 6 mi East 5.8 mph - -   Scattered Clouds
11:20 PM 71.6 °F - 68.0 °F 88% 29.89 in - East 5.8 mph - N/A   Clear
11:50 PM 71.6 °F - 66.2 °F 83% 29.89 in - East 4.6 mph - N/A   Clear